TimePST,TemperatureF,Dew PointF,Humidity,Sea Level PressureIn,VisibilityMPH,Wind Direction,Wind SpeedMPH,Gust SpeedMPH,PrecipitationIn,Events,Conditions,WindDirDegrees,DateUTC
12:56 AM,57.0,46.0,67,30.17,10.0,WSW,4.6,-,N/A,,Clear,250,2012-12-04 08:56:00
1:56 AM,55.0,45.0,69,30.17,10.0,South,4.6,-,N/A,,Clear,190,2012-12-04 09:56:00
2:56 AM,57.9,46.0,65,30.18,10.0,WNW,5.8,-,N/A,,Clear,290,2012-12-04 10:56:00
3:56 AM,55.0,44.1,67,30.18,10.0,WSW,5.8,-,N/A,,Clear,250,2012-12-04 11:56:00
4:56 AM,54.0,45.0,72,30.19,10.0,WSW,4.6,-,N/A,,Clear,250,2012-12-04 12:56:00
5:56 AM,53.1,43.0,69,30.21,10.0,West,6.9,-,N/A,,Clear,270,2012-12-04 13:56:00
6:56 AM,55.0,45.0,69,30.22,10.0,West,5.8,-,N/A,,Scattered Clouds,260,2012-12-04 14:56:00
7:56 AM,60.1,46.9,62,30.24,10.0,West,4.6,-,N/A,,Mostly Cloudy,260,2012-12-04 15:56:00
8:56 AM,66.0,48.9,54,30.27,10.0,WNW,5.8,-,N/A,,Scattered Clouds,290,2012-12-04 16:56:00
9:56 AM,73.0,50.0,44,30.26,10.0,NNW,5.8,-,N/A,,Scattered Clouds,340,2012-12-04 17:56:00
10:56 AM,75.9,48.9,38,30.24,10.0,Calm,Calm,-,N/A,,Scattered Clouds,0,2012-12-04 18:56:00
11:56 AM,78.1,48.9,36,30.21,10.0,NNW,4.6,-,N/A,,Scattered Clouds,340,2012-12-04 19:56:00
12:56 PM,79.0,48.9,35,30.18,10.0,NW,6.9,-,N/A,,Scattered Clouds,320,2012-12-04 20:56:00
1:56 PM,80.1,48.9,34,30.16,10.0,NNE,3.5,-,N/A,,Scattered Clouds,20,2012-12-04 21:56:00
2:56 PM,79.0,48.9,35,30.15,10.0,Calm,Calm,-,N/A,,Scattered Clouds,0,2012-12-04 22:56:00
3:56 PM,78.1,48.0,35,30.15,10.0,Calm,Calm,-,N/A,,Mostly Cloudy,0,2012-12-04 23:56:00
4:56 PM,72.0,48.9,44,30.15,10.0,WSW,4.6,-,N/A,,Mostly Cloudy,250,2012-12-05 00:56:00
5:56 PM,69.1,50.0,51,30.16,10.0,WSW,5.8,-,N/A,,Mostly Cloudy,240,2012-12-05 01:56:00
6:56 PM,64.0,45.0,50,30.16,10.0,WSW,3.5,-,N/A,,Mostly Cloudy,250,2012-12-05 02:56:00
7:56 PM,60.1,48.0,64,30.17,10.0,Calm,Calm,-,N/A,,Clear,0,2012-12-05 03:56:00
8:56 PM,63.0,45.0,52,30.16,10.0,Calm,Calm,-,N/A,,Clear,0,2012-12-05 04:56:00
9:56 PM,60.1,48.9,67,30.16,10.0,SW,3.5,-,N/A,,Clear,230,2012-12-05 05:56:00
10:55 PM,-9999,-9999,N/A,-9999,-9999.0,North,-9999.0,-,N/A,,Unknown,0,2012-12-05 06:55:00
10:56 PM,57.0,43.0,59,30.15,10.0,WSW,5.8,-,N/A,,Clear,250,2012-12-05 06:56:00
11:56 PM,55.0,42.1,62,30.14,10.0,West,6.9,-,N/A,,Clear,280,2012-12-05 07:56:00